Lid_Strength_Index
7 8 8 9 10 11 12 11 11 11 11 12 12 13 12 12 12 11 10 11 11 10 11 11 11 10 11 11 11 11 11 12 11 12 12 12 11 12 11 11 9 9 8
8 9 8 10 10 10 11 11 11 11 11 11 12 12 13 12 12 11 11 11 11 11 11 11 11 11 11 12 12 12 12 12 11 12 13 15 14 13 11 10 9 10 9
8 8 9 9 9 10 11 11 11 11 11 11 12 12 12 12 12 11 12 11 11 11 11 11 12 12 12 12 12 12 12 13 12 12 13 15 16 12 12 11 11 11 10
8 8 8 9 9 9 10 10 10 11 10 11 11 12 12 13 12 12 12 12 11 12 11 11 12 12 12 12 12 11 12 12 13 13 11 11 12 14 14 12 11 9 8
8 8 8 8 8 9 10 10 10 11 10 11 11 12 13 12 12 13 13 13 12 12 11 11 12 12 12 12 12 12 12 12 13 13 13 12 12 12 12 13 10 7 6
9 8 7 8 8 9 10 10 11 11 11 11 11 12 12 12 13 13 13 13 13 12 12 11 12 12 12 12 12 12 13 13 13 12 12 12 12 13 12 11 9 8 6
10 8 8 8 9 9 10 10 11 11 11 11 11 11 12 12 13 13 13 13 13 13 12 12 12 12 12 12 12 12 13 13 13 12 11 11 10 9 9 9 8 7 6
9 9 8 8 9 9 10 10 11 11 11 11 11 11 11 12 12 12 13 13 13 13 12 12 12 12 12 12 12 12 12 12 12 12 11 10 10 8 8 8 7 8 7
10 9 9 9 9 10 10 10 10 10 11 11 11 12 12 12 12 13 13 13 13 12 12 12 12 12 12 12 12 12 13 12 11 11 10 10 9 8 7 6 6 7 9
9 10 9 9 10 10 10 10 10 10 11 11 11 11 12 12 12 13 13 13 13 12 12 12 12 12 12 12 12 13 12 12 11 10 10 10 8 7 7 6 5 5 7
9 9 9 9 10 10 10 10 10 10 11 11 11 11 12 12 13 13 13 13 13 13 12 12 12 12 12 12 13 13 12 12 11 10 10 9 7 8 7 6 6 6 6
10 9 9 11 11 11 10 10 10 10 11 11 11 12 12 13 14 14 14 13 13 13 13 13 13 13 13 13 13 13 12 12 11 10 10 9 7 8 7 6 6 6 5
10 10 11 10 10 11 11 10 10 10 11 11 11 12 12 13 14 14 14 14 14 13 13 13 13 13 13 13 13 12 12 11 10 10 9 8 7 8 7 6 6 5 4
10 10 11 11 10 11 11 11 11 10 11 11 11 12 12 13 13 13 14 14 13 13 14 13 13 13 13 12 12 12 11 11 9 9 8 7 7 7 6 6 5 5 5
9 10 10 10 10 11 11 11 11 11 11 11 11 12 12 13 13 14 14 14 14 13 14 14 13 13 13 12 12 11 10 10 9 8 7 6 5 3 3 4 5 5 5
8 9 9 9 10 10 10 11 11 11 11 11 11 12 12 13 13 13 14 14 14 14 14 14 14 14 12 9 7 7 9 9 9 8 7 7 5 5 2 3 3 4 5
8 9 9 9 9 10 10 10 10 10 11 11 11 12 12 13 13 14 14 14 15 15 15 15 15 14 14 8 7 6 9 10 10 9 8 7 6 5 5 4 3 4 2
8 8 8 8 9 9 9 10 10 11 11 11 12 12 13 13 13 14 15 15 15 15 15 15 15 14 13 8 7 6 10 10 10 9 8 7 7 6 5 6 5 5 4
7 7 7 8 9 10 10 11 11 11 11 12 13 13 13 13 14 15 15 15 15 15 15 15 14 15 14 9 7 7 10 10 10 8 7 7 6 3 3 5 5 5 5
7 8 9 9 9 10 11 12 12 12 12 12 13 13 13 13 14 15 15 15 15 15 14 14 14 12 13 9 7 7 10 11 9 7 7 5 5 2 4 5 5 7 6
8 8 9 9 9 11 11 12 13 13 12 12 13 13 14 14 14 15 15 15 15 15 15 15 14 14 13 12 7 7 9 9 8 7 7 6 3 3 4 3 5 5 4
7 9 11 11 11 11 11 13 13 13 13 13 13 14 14 13 14 15 15 16 16 16 16 16 15 13 12 9 8 7 6 6 8 7 6 5 3 3 4 4 3 3 4
7 10 13 13 12 12 12 13 15 14 13 13 14 14 14 14 14 15 15 16 16 16 16 16 15 13 12 12 8 7 6 5 6 5 5 4 4 4 5 4 4 4 6
7 11 12 13 13 13 13 14 13 13 13 14 15 15 14 15 15 14 15 16 16 16 16 15 14 13 12 12 11 10 9 6 6 5 7 5 5 5 5 5 5 6 6
7 11 12 13 13 13 13 13 12 12 14 14 14 14 14 14 15 15 15 15 15 15 15 14 13 13 12 11 8 7 7 7 7 6 7 8 8 8 8 6 7 7 7
7 10 12 12 13 12 13 12 12 13 13 14 14 14 14 14 14 15 15 11 11 10 9 9 9 10 8 7 7 6 5 5 4 8 9 9 9 9 8 8 8 8 7